This is the latest recevied weather packets stored in our database for station/object AG7BI. If no packets are shown the sender has not sent any weather packets the latest 10 day(s).
| Time | Temp. | Humidity | Pressure | Rain* | Wind** | Luminosity | Snow |
|---|---|---|---|---|---|---|---|
| 1777814152 | 13.89° C | 65% | 1014.7 hPa | 0 mm | - | - | - |
| 1777813852 | 13.89° C | 65% | 1014.6 hPa | 0 mm | - | - | - |
| 1777813552 | 13.89° C | 63% | 1014.6 hPa | 0 mm | - | - | - |
| 1777813252 | 13.89° C | 65% | 1014.5 hPa | 0 mm | - | - | - |
| 1777812952 | 13.89° C | 64% | 1014.6 hPa | 0 mm | - | - | - |
| 1777812652 | 13.89° C | 64% | 1014.6 hPa | 0 mm | - | - | - |
| 1777812352 | 13.33° C | 63% | 1014.6 hPa | 0 mm | - | - | - |
| 1777812052 | 13.89° C | 65% | 1014.8 hPa | 0 mm | - | - | - |
| 1777811752 | 13.89° C | 63% | 1014.6 hPa | 0 mm | - | - | - |
| 1777811452 | 13.89° C | 63% | 1014.6 hPa | 0 mm | - | - | - |
| 1777811152 | 13.89° C | 62% | 1014.6 hPa | 0 mm | - | - | - |
| 1777810852 | 14.44° C | 61% | 1014.5 hPa | 0 mm | - | - | - |
| 1777810552 | 13.89° C | 62% | 1014.6 hPa | 0 mm | - | - | - |
| 1777810252 | 14.44° C | 62% | 1014.7 hPa | 0 mm | - | - | - |
| 1777809952 | 14.44° C | 61% | 1014.6 hPa | 0 mm | - | - | - |
| 1777809652 | 13.89° C | 61% | 1014.8 hPa | 0 mm | - | - | - |
| 1777809352 | 13.89° C | 61% | 1015 hPa | 0 mm | - | - | - |
| 1777809052 | 13.89° C | 61% | 1015 hPa | 0 mm | - | - | - |
| 1777808752 | 13.89° C | 62% | 1014.8 hPa | 0 mm | - | - | - |
| 1777808452 | 13.89° C | 61% | 1014.9 hPa | 0 mm | - | - | - |
| 1777808152 | 13.89° C | 65% | 1014.8 hPa | 0 mm | - | - | - |
| 1777807852 | 13.33° C | 63% | 1014.9 hPa | 0 mm | - | - | - |
| 1777807552 | 13.33° C | 66% | 1015 hPa | 0 mm | - | - | - |
| 1777807252 | 12.78° C | 68% | 1014.7 hPa | 0 mm | - | - | - |
| 1777806952 | 12.78° C | 69% | 1014.6 hPa | 0 mm | - | - | - |
* Rain latest hour (hover to see other rain measurements)
** Current wind speed in m/s (hover to see current wind gust speed)